Change the Weather History Date:

Sunday, February 16, 2014

  Actual Average Record
Temperature  
Mean Temperature 21 °F 33 °F  
Max Temperature 28 °F 41 °F 72 °F (1883)
Min Temperature 14 °F 25 °F -5 °F (1904)
Degree Days  
Heating Degree Days 44 32  
Month to date heating degree days 690 538  
Since 1 July heating degree days 3987 3630  
Cooling Degree Days 0 0  
Month to date cooling degree days 0 0  
Year to date cooling degree days 0 0  
Moisture  
Dew Point 15 °F    
Average Humidity 72    
Maximum Humidity 81    
Minimum Humidity 63    
Precipitation  
Precipitation 0.02 in 0.07 in 2.18 in (1891)
Month to date precipitation 1.69 1.30  
Year to date precipitation 4.09 4.03  
Snow  
Snow 0.40 in 0.20 in 8.90 in (2003)
Month to date snowfall 15.2 3.5  
Since 1 July snowfall 50.3 18.8  
Snow Depth 7.00 in    
Sea Level Pressure  
Sea Level Pressure 30.11 in    
Wind  
Wind Speed 7 mph (WSW)    
Max Wind Speed 20 mph    
Max Gust Speed 23 mph    
Visibility 5 miles    
Events Snow    
T = Trace of Precipitation, MM = Missing Value Source: NWS Daily Summary

Daily Weather History Graph

Daily Weather History Graph

Search for Another Location

Airport or City:

Trip Planner

Search our weather history database for the weather conditions in past years. The results will help you decide how hot, cold, wet, or windy it might be!

Date:

Astronomy

Feb. 16, 2014 Rise Set
Actual Time 7:23 AM EST 6:08 PM EST
Civil Twilight 6:55 AM EST 6:36 PM EST
Nautical Twilight 6:23 AM EST 7:08 PM EST
Astronomical Twilight 5:52 AM EST 7:39 PM EST
Moon 8:04 PM EST (2/16) 7:52 AM EST (2/16)
Length of Visible Light 11h 40m
Length of Day
10h 45m
Full, 97% of the Moon is Illuminated
Feb 16
Full
Feb 22
Last Quarter
Mar 1
New
Mar 8
First Quarter
Mar 16
Full

Hourly Weather History & Observations

Time (EST) Temp. Windchill Dew Point Humidity Pressure Visibility Wind Dir Wind Speed Gust Speed Precip Events Conditions
12:51 AM 15.1 °F - 10.0 °F 80% 30.09 in 6.0 mi Calm Calm - N/A   Haze
1:51 AM 15.1 °F 9.4 °F 9.0 °F 77% 30.07 in 6.0 mi SE 3.5 mph - N/A   Haze
2:51 AM 17.1 °F - 10.9 °F 77% 30.07 in 7.0 mi Calm Calm - N/A   Mostly Cloudy
3:51 AM 18.0 °F 12.7 °F 12.0 °F 78% 30.05 in 6.0 mi SE 3.5 mph - N/A   Haze
4:01 AM 17.6 °F 9.3 °F 12.2 °F 79% 30.00 in 6.0 mi SSE 5.8 mph - N/A   Haze
4:51 AM 19.0 °F 13.9 °F 12.9 °F 77% 30.02 in 7.0 mi SSE 3.5 mph - N/A   Overcast
5:05 AM 19.4 °F 14.3 °F 12.2 °F 74% 29.99 in 7.0 mi SE 3.5 mph - N/A   Overcast
5:38 AM 19.4 °F - 14.0 °F 80% 29.99 in 6.0 mi Calm Calm - N/A   Haze
5:51 AM 19.9 °F 12.1 °F 14.0 °F 78% 30.01 in 5.0 mi ESE 5.8 mph - N/A   Haze
6:06 AM 21.2 °F 11.7 °F 14.0 °F 74% 29.97 in 6.0 mi SE 8.1 mph - N/A   Haze
6:51 AM 21.0 °F 14.6 °F 15.1 °F 78% 30.00 in 6.0 mi SSE 4.6 mph - N/A   Haze
7:51 AM 21.9 °F 15.7 °F 16.0 °F 78% 30.01 in 5.0 mi South 4.6 mph - N/A   Haze
8:06 AM 21.2 °F 14.9 °F 15.8 °F 80% 29.97 in 5.0 mi South 4.6 mph - 0.00 in Snow Light Snow
8:51 AM 21.9 °F 13.4 °F 18.0 °F 85% 30.01 in 3.0 mi South 6.9 mph - 0.00 in Snow Light Snow
9:21 AM 23.0 °F 13.1 °F 17.6 °F 80% 29.98 in 2.0 mi SSW 9.2 mph - 0.01 in Snow Light Snow
9:46 AM 23.0 °F 14.7 °F 19.4 °F 86% 29.99 in 2.0 mi SW 6.9 mph - 0.01 in Snow Light Snow
9:51 AM 24.1 °F 16.0 °F 19.0 °F 81% 30.03 in 2.5 mi SW 6.9 mph - 0.01 in Snow Light Snow
10:42 AM 24.8 °F 16.9 °F 19.4 °F 80% 30.00 in 2.5 mi WSW 6.9 mph - 0.01 in Snow Light Snow
10:51 AM 24.1 °F 17.0 °F 19.9 °F 84% 30.04 in 2.5 mi SW 5.8 mph - 0.01 in Snow Light Snow
11:08 AM 24.8 °F 17.9 °F 19.4 °F 80% 30.00 in 3.0 mi WSW 5.8 mph - 0.00 in Snow Light Snow
11:21 AM 26.6 °F 21.2 °F 19.4 °F 74% 30.00 in 4.0 mi WSW 4.6 mph - 0.00 in   Haze
11:37 AM 26.6 °F 21.2 °F 19.4 °F 74% 30.01 in 4.0 mi West 4.6 mph - 0.00 in   Haze
11:51 AM 27.0 °F 21.6 °F 21.0 °F 78% 30.04 in 4.0 mi West 4.6 mph - 0.00 in   Haze
12:51 PM 27.0 °F 14.7 °F 19.9 °F 75% 30.06 in 5.0 mi WNW 16.1 mph - N/A   Haze
1:51 PM 27.0 °F 15.6 °F 21.0 °F 78% 30.06 in 3.0 mi WNW 13.8 mph - 0.00 in Snow Light Snow
2:15 PM 26.6 °F 15.2 °F 21.2 °F 80% 30.03 in 2.0 mi WNW 13.8 mph - 0.00 in Snow Light Snow
2:24 PM 26.6 °F 13.4 °F 19.4 °F 74% 30.03 in 4.0 mi WNW 18.4 mph - 0.00 in   Haze
2:51 PM 27.0 °F 14.3 °F 19.0 °F 72% 30.08 in 4.0 mi WNW 17.3 mph - 0.00 in   Haze
3:51 PM 27.0 °F 13.9 °F 17.1 °F 66% 30.13 in 5.0 mi NW 18.4 mph 23.0 mph 0.00 in   Haze
4:51 PM 26.1 °F 15.0 °F 15.1 °F 63% 30.17 in 6.0 mi WNW 12.7 mph - 0.00 in   Haze
5:20 PM 26.6 °F 14.7 °F 15.8 °F 64% 30.15 in 7.0 mi NW 15.0 mph 21.9 mph N/A   Overcast
5:51 PM 25.0 °F 13.1 °F 15.1 °F 66% 30.21 in 6.0 mi NW 13.8 mph - N/A   Haze
6:00 PM 24.8 °F 12.9 °F 15.8 °F 69% 30.18 in 6.0 mi WNW 13.8 mph - N/A   Haze
6:51 PM 25.0 °F 16.3 °F 16.0 °F 69% 30.26 in 7.0 mi NW 8.1 mph - N/A   Overcast
7:22 PM 24.8 °F 16.1 °F 15.8 °F 69% 30.24 in 6.0 mi NNW 8.1 mph - N/A   Haze
7:42 PM 24.8 °F 15.3 °F 15.8 °F 69% 30.26 in 7.0 mi NNW 9.2 mph - N/A   Overcast
7:51 PM 24.1 °F 15.2 °F 15.1 °F 69% 30.30 in 8.0 mi NW 8.1 mph - N/A   Overcast
8:51 PM 21.9 °F 14.5 °F 12.0 °F 66% 30.32 in 9.0 mi North 5.8 mph - N/A   Partly Cloudy
9:41 PM 21.2 °F 16.4 °F 12.2 °F 68% 30.30 in 8.0 mi NNE 3.5 mph - N/A   Mostly Cloudy
9:51 PM 19.9 °F 14.9 °F 12.0 °F 71% 30.35 in 8.0 mi NNE 3.5 mph - N/A   Overcast
10:17 PM 19.4 °F - 10.4 °F 68% 30.31 in 7.0 mi Calm Calm - N/A   Partly Cloudy
10:51 PM 17.1 °F - 9.0 °F 71% 30.35 in 7.0 mi Calm Calm - N/A   Clear
11:27 PM 17.6 °F 10.7 °F 10.4 °F 73% 30.31 in 7.0 mi East 4.6 mph - N/A   Mostly Cloudy
11:51 PM 16.0 °F 8.8 °F 9.0 °F 74% 30.35 in 7.0 mi East 4.6 mph - N/A   Overcast